Goodland, KS

6:49 PM MDT on May 21, 2018 (GMT -0600)
Renner-Goodland Municipal

Weather History for KGLD - May, 2012

Change the Weather History Date:

Monday, May 14, 2012

  Actual Average Record
Temperature  
Mean Temperature 62 °F 59 °F  
Max Temperature 80 °F 72 °F 95 °F (1915)
Min Temperature 44 °F 45 °F 27 °F (1953)
Degree Days  
Heating Degree Days 3 7  
Month to date heating degree days 82 127  
Since 1 July heating degree days 5001 5782  
Cooling Degree Days 0 1  
Month to date cooling degree days 20 12  
Year to date cooling degree days 37 16  
Growing Degree Days 12 (Base 50)    
Moisture  
Dew Point 33 °F    
Average Humidity 48    
Maximum Humidity 86    
Minimum Humidity 10    
Precipitation  
Precipitation 0.00 in 0.09 in 1.27 in (1928)
Month to date precipitation 0.22 1.13  
Year to date precipitation 4.19 4.66  
Snow  
Snow 0.00 in 0.00 in - ()
Month to date snowfall 0.0 0.4  
Since 1 July snowfall 17.1 35.4  
Snow Depth 0.00 in    
Sea Level Pressure  
Sea Level Pressure 30.11 in    
Wind  
Wind Speed 6 mph (West)    
Max Wind Speed 12 mph    
Max Gust Speed 20 mph    
Visibility 10 miles    
Events      
T = Trace of Precipitation, MM = Missing Value Source: NWS Daily Summary

Daily Weather History Graph

Daily Weather History Graph

Search for Another Location

Airport or City:

Astronomy

May. 14, 2012 Rise Set
Actual Time 5:33 AM MDT 7:53 PM MDT
Civil Twilight 5:03 AM MDT 8:23 PM MDT
Nautical Twilight 4:26 AM MDT 9:01 PM MDT
Astronomical Twilight 3:45 AM MDT 9:42 PM MDT
Moon 2:06 AM MDT (5/14) 2:17 PM MDT (5/14)
Length of Visible Light 15h 20m
Length of Day
14h 19m
Waning Crescent, 32% of the Moon is Illuminated
May 14
Waning Crescent
May 20
New
May 28
First Quarter
Jun 4
Full
Jun 11
Last Quarter

Hourly Weather History & Observations

Time (MDT) Temp. Windchill Dew Point Humidity Pressure Visibility Wind Dir Wind Speed Gust Speed Precip Events Conditions
12:53 AM 48.0 °F - 43.0 °F 83% 30.20 in 10.0 mi WNW 6.9 mph - N/A   Clear
1:53 AM 46.9 °F - 42.1 °F 83% 30.18 in 10.0 mi WNW 6.9 mph - N/A   Partly Cloudy
2:53 AM 46.9 °F - 41.0 °F 80% 30.17 in 10.0 mi WNW 8.1 mph - N/A   Clear
3:53 AM 45.0 °F 40.6 °F 39.9 °F 82% 30.17 in 10.0 mi West 8.1 mph - N/A   Clear
4:53 AM 45.0 °F 40.1 °F 39.9 °F 82% 30.17 in 10.0 mi West 9.2 mph - N/A   Scattered Clouds
5:53 AM 44.1 °F 39.5 °F 39.0 °F 82% 30.17 in 10.0 mi West 8.1 mph - N/A   Clear
6:53 AM 48.0 °F - 41.0 °F 77% 30.18 in 10.0 mi West 8.1 mph - N/A   Clear
7:53 AM 55.0 °F - 43.0 °F 64% 30.19 in 10.0 mi WNW 8.1 mph - N/A   Clear
8:53 AM 62.1 °F - 45.0 °F 53% 30.19 in 10.0 mi WNW 6.9 mph - N/A   Clear
9:53 AM 69.1 °F - 43.0 °F 39% 30.17 in 10.0 mi Variable 4.6 mph - N/A   Clear
10:53 AM 71.1 °F - 37.0 °F 29% 30.17 in 10.0 mi Calm Calm - N/A   Clear
11:53 AM 73.0 °F - 34.0 °F 24% 30.14 in 10.0 mi Variable 4.6 mph - N/A   Clear
12:53 PM 75.0 °F - 30.0 °F 19% 30.12 in 10.0 mi Variable 4.6 mph - N/A   Clear
1:53 PM 75.9 °F - 26.1 °F 16% 30.09 in 10.0 mi Variable 3.5 mph - N/A   Clear
2:53 PM 79.0 °F - 26.1 °F 14% 30.07 in 10.0 mi NW 6.9 mph - N/A   Clear
3:53 PM 79.0 °F - 24.1 °F 13% 30.05 in 10.0 mi Variable 5.8 mph - N/A   Clear
4:53 PM 80.1 °F - 21.9 °F 12% 30.04 in 10.0 mi Variable 4.6 mph - N/A   Clear
5:53 PM 79.0 °F - 18.0 °F 10% 30.04 in 10.0 mi ENE 4.6 mph - N/A   Clear
6:53 PM 75.0 °F - 27.0 °F 17% 30.03 in 10.0 mi NNE 4.6 mph - N/A   Clear
7:53 PM 64.9 °F - 30.9 °F 28% 30.04 in 10.0 mi ESE 4.6 mph - N/A   Clear
8:53 PM 60.1 °F - 33.1 °F 36% 30.04 in 10.0 mi SE 4.6 mph - N/A   Clear
9:53 PM 57.9 °F - 30.9 °F 36% 30.04 in 10.0 mi South 9.2 mph - N/A   Clear
10:53 PM 51.1 °F - 30.9 °F 46% 30.05 in 10.0 mi SSW 5.8 mph - N/A   Clear
11:53 PM 57.0 °F - 30.0 °F 36% 30.04 in 10.0 mi SSW 8.1 mph - N/A   Clear